Time,TemperatureF,DewpointF,PressureIn,WindDirection,WindDirectionDegrees,WindSpeedMPH,WindSpeedGustMPH,Humidity,HourlyPrecipIn,Conditions,Clouds,dailyrainin,SoftwareType,DateUTC
2013-08-26 00:14:00,77.0,68.0,30.18,NE,50,0.0,0.0,74,0.00,,,0.31,,2013-08-26 04:14:00,
2013-08-26 00:53:00,77.0,69.0,30.15,NNE,30,0.0,0.0,77,0.00,,,0.31,,2013-08-26 04:53:00,
2013-08-26 01:13:00,77.0,69.0,30.15,NE,50,1.0,1.0,77,0.00,,,0.31,,2013-08-26 05:13:00,
2013-08-26 01:23:00,77.0,69.0,30.15,ENE,65,1.0,0.0,77,0.00,,,0.31,,2013-08-26 05:23:00,
2013-08-26 01:43:00,77.0,70.0,30.15,ENE,60,0.0,2.0,78,0.00,,,0.31,,2013-08-26 05:43:00,
2013-08-26 01:52:00,77.0,69.0,30.15,NE,50,1.0,0.0,77,0.00,,,0.31,,2013-08-26 05:52:00,
2013-08-26 02:12:00,77.0,70.0,30.15,NE,55,0.0,0.0,78,0.00,,,0.31,,2013-08-26 06:12:00,
2013-08-26 02:22:00,76.0,69.0,30.12,ENE,60,0.0,0.0,78,0.00,,,0.31,,2013-08-26 06:22:00,
2013-08-26 02:42:00,76.0,69.0,30.12,NE,40,0.0,0.0,79,0.00,,,0.31,,2013-08-26 06:42:00,
2013-08-26 02:52:00,76.0,69.0,30.12,NE,55,0.0,0.0,79,0.00,,,0.31,,2013-08-26 06:52:00,
2013-08-26 03:22:00,76.0,69.0,30.12,NE,50,0.0,0.0,79,0.00,,,0.31,,2013-08-26 07:22:00,
2013-08-26 03:52:00,76.0,69.0,30.12,ENE,60,0.0,0.0,80,0.00,,,0.31,,2013-08-26 07:52:00,
2013-08-26 04:12:00,76.0,69.0,30.12,NNE,30,0.0,0.0,80,0.00,,,0.31,,2013-08-26 08:12:00,
2013-08-26 04:22:00,76.0,69.0,30.12,NE,50,0.0,0.0,80,0.00,,,0.31,,2013-08-26 08:22:00,
2013-08-26 04:52:00,76.0,70.0,30.09,NNW,335,0.0,0.0,81,0.00,,,0.31,,2013-08-26 08:52:00,
2013-08-26 05:11:00,76.0,70.0,30.09,NNW,335,0.0,0.0,81,0.00,,,0.31,,2013-08-26 09:11:00,
2013-08-26 05:22:00,76.0,70.0,30.09,NNW,335,0.0,0.0,81,0.00,,,0.31,,2013-08-26 09:22:00,
2013-08-26 05:53:00,75.0,69.0,30.09,NW,315,0.0,0.0,83,0.00,,,0.31,,2013-08-26 09:53:00,
2013-08-26 06:12:00,75.0,69.0,30.09,NW,310,0.0,0.0,83,0.00,,,0.31,,2013-08-26 10:12:00,
2013-08-26 06:23:00,75.0,69.0,30.09,NW,310,0.0,0.0,83,0.00,,,0.31,,2013-08-26 10:23:00,
2013-08-26 06:52:00,75.0,69.0,30.09,NW,310,0.0,0.0,83,0.00,,,0.28,,2013-08-26 10:52:00,
2013-08-26 07:22:00,75.0,69.0,30.09,NW,310,0.0,0.0,83,0.00,,,0.26,,2013-08-26 11:22:00,
2013-08-26 07:52:00,75.0,69.0,30.09,NW,310,0.0,0.0,83,0.00,,,0.24,,2013-08-26 11:52:00,
2013-08-26 08:12:00,75.0,69.0,30.09,NW,310,0.0,0.0,83,0.00,,,0.24,,2013-08-26 12:12:00,
2013-08-26 08:22:00,75.0,69.0,30.09,NW,310,0.0,0.0,83,0.00,,,0.24,,2013-08-26 12:22:00,
2013-08-26 08:52:00,75.0,69.0,30.09,NW,310,0.0,0.0,83,0.00,,,0.24,,2013-08-26 12:52:00,
2013-08-26 09:12:00,77.0,70.0,30.12,WNW,295,0.0,0.0,78,0.00,,,0.24,,2013-08-26 13:12:00,
2013-08-26 09:22:00,77.0,70.0,30.12,WNW,295,0.0,0.0,78,0.00,,,0.24,,2013-08-26 13:22:00,
2013-08-26 09:52:00,79.0,70.0,30.12,NE,45,0.0,0.0,73,0.00,,,0.24,,2013-08-26 13:52:00,
2013-08-26 10:22:00,81.0,70.0,30.12,ENE,60,0.0,1.0,69,0.00,,,0.24,,2013-08-26 14:22:00,
2013-08-26 10:52:00,82.0,69.0,30.15,NE,55,1.0,7.0,64,0.00,,,0.24,,2013-08-26 14:52:00,
2013-08-26 11:12:00,83.0,70.0,30.15,NE,35,2.0,6.0,64,0.00,,,0.24,,2013-08-26 15:12:00,
2013-08-26 11:22:00,83.0,69.0,30.15,NE,35,1.0,5.0,63,0.00,,,0.24,,2013-08-26 15:22:00,
2013-08-26 11:47:00,85.0,70.0,30.15,NE,45,2.0,3.0,61,0.00,,,0.24,,2013-08-26 15:47:00,
2013-08-26 11:59:00,85.0,69.0,30.15,NE,45,2.0,8.0,59,0.00,,,0.24,,2013-08-26 15:59:00,
2013-08-26 12:29:00,86.0,69.0,30.15,NE,35,3.0,7.0,58,0.00,,,0.24,,2013-08-26 16:29:00,
2013-08-26 12:59:00,85.0,69.0,30.15,ENE,65,1.0,1.0,59,0.00,,,0.24,,2013-08-26 16:59:00,
2013-08-26 13:24:00,86.0,69.0,30.12,NNE,25,5.0,6.0,57,0.00,,,0.24,,2013-08-26 17:24:00,
2013-08-26 14:12:00,85.0,68.0,30.12,NE,55,8.0,9.0,57,0.00,,,0.24,,2013-08-26 18:12:00,
2013-08-26 14:22:00,85.0,68.0,30.12,ENE,70,6.0,7.0,56,0.00,,,0.24,,2013-08-26 18:22:00,
2013-08-26 14:52:00,86.0,69.0,30.09,East,95,6.0,10.0,58,0.00,,,0.24,,2013-08-26 18:52:00,
2013-08-26 15:11:00,87.0,68.0,30.09,NE,50,6.0,9.0,54,0.00,,,0.24,,2013-08-26 19:11:00,
2013-08-26 15:22:00,87.0,68.0,30.09,East,80,6.0,9.0,54,0.00,,,0.24,,2013-08-26 19:22:00,
2013-08-26 15:52:00,87.0,67.0,30.09,East,80,5.0,8.0,52,0.00,,,0.24,,2013-08-26 19:52:00,
2013-08-26 16:11:00,85.0,67.0,30.06,NE,55,6.0,9.0,55,0.00,,,0.00,,2013-08-26 20:11:00,
2013-08-26 16:22:00,86.0,67.0,30.06,ENE,65,6.0,6.0,54,0.00,,,0.00,,2013-08-26 20:22:00,
2013-08-26 16:43:00,86.0,67.0,30.06,ENE,60,6.0,10.0,53,0.00,,,0.00,,2013-08-26 20:43:00,
2013-08-26 16:52:00,87.0,68.0,30.06,NE,55,8.0,8.0,53,0.00,,,0.00,,2013-08-26 20:52:00,
2013-08-26 17:22:00,87.0,67.0,30.06,ENE,70,6.0,7.0,52,0.00,,,0.00,,2013-08-26 21:22:00,
2013-08-26 17:55:00,85.0,67.0,30.06,NE,55,6.0,7.0,55,0.00,,,0.00,,2013-08-26 21:55:00,
2013-08-26 18:16:00,85.0,67.0,30.06,ENE,65,3.0,7.0,55,0.00,,,0.00,,2013-08-26 22:16:00,
2013-08-26 18:26:00,85.0,67.0,30.06,ENE,65,3.0,7.0,55,0.00,,,0.00,,2013-08-26 22:26:00,
2013-08-26 18:53:00,84.0,68.0,30.06,ENE,60,6.0,8.0,58,0.00,,,0.00,,2013-08-26 22:53:00,
2013-08-26 19:22:00,83.0,68.0,30.06,NE,55,5.0,8.0,61,0.00,,,0.00,,2013-08-26 23:22:00,
2013-08-26 19:52:00,82.0,69.0,30.06,ENE,65,5.0,7.0,64,0.00,,,0.00,,2013-08-26 23:52:00,
2013-08-26 20:21:00,81.0,69.0,30.03,ENE,65,2.0,8.0,66,0.00,,,0.00,,2013-08-27 00:21:00,
2013-08-26 20:52:00,81.0,69.0,30.06,ENE,60,1.0,1.0,68,0.00,,,0.00,,2013-08-27 00:52:00,
2013-08-26 21:22:00,80.0,69.0,30.06,East,85,1.0,0.0,69,0.00,,,0.00,,2013-08-27 01:22:00,
2013-08-26 21:52:00,80.0,68.0,30.06,NE,35,0.0,0.0,68,0.00,,,0.00,,2013-08-27 01:52:00,
2013-08-26 22:22:00,80.0,69.0,30.06,NNE,25,0.0,0.0,69,0.00,,,0.00,,2013-08-27 02:22:00,
2013-08-26 22:52:00,79.0,68.0,30.09,NNE,20,0.0,0.0,70,0.00,,,0.00,,2013-08-27 02:52:00,
2013-08-26 23:23:00,79.0,69.0,30.09,NE,50,0.0,0.0,71,0.00,,,0.00,,2013-08-27 03:23:00,
2013-08-26 23:44:00,80.0,70.0,30.09,ESE,120,0.0,1.0,72,0.00,,,0.00,,2013-08-27 03:44:00,
2013-08-26 23:58:00,80.0,70.0,30.09,SE,130,0.0,0.0,71,0.00,,,0.00,,2013-08-27 03:58:00,